Nampa, ID

2:40 AM MDT on October 24, 2017 (GMT -0600)
Nampa

Weather History for KMAN - May, 2013

Change the Weather History Date:

Tuesday, May 28, 2013

  Actual Average (KBOI) Record (KBOI)
Temperature  
Mean Temperature 58 °F -  
Max Temperature 66 °F 74 °F 99 °F (1919)
Min Temperature 50 °F 47 °F 34 °F (1982)
Degree Days  
Heating Degree Days 7    
Growing Degree Days 8 (Base 50)    
Moisture  
Dew Point 46 °F    
Average Humidity 74    
Maximum Humidity 100    
Minimum Humidity 37    
Precipitation  
Precipitation 0.03 in - - ()
Sea Level Pressure  
Sea Level Pressure 29.84 in    
Wind  
Wind Speed 7 mph (WNW)    
Max Wind Speed 20 mph    
Max Gust Speed 25 mph    
Visibility 10 miles    
Events      
Averages and records for this station are not official NWS values.
T = Trace of Precipitation, MM = Missing Value Source: NWS Daily Summary

Daily Weather History Graph

Daily Weather History Graph

Search for Another Location

Airport or City:

Trip Planner

Search our weather history database for the weather conditions in past years. The results will help you decide how hot, cold, wet, or windy it might be!

Date:

Astronomy

May. 28, 2013 Rise Set
Actual Time 6:09 AM MDT 9:17 PM MDT
Civil Twilight 5:35 AM MDT 9:52 PM MDT
Nautical Twilight 4:50 AM MDT 10:36 PM MDT
Astronomical Twilight 3:57 AM MDT 11:30 PM MDT
Moon No Moon Rise 10:06 AM MDT (5/28)
Length of Visible Light 16h 16m
Length of Day
15h 07m
Waning Gibbous, 82% of the Moon is Illuminated
May 28
Waning Gibbous
May 31
Last Quarter
Jun 8
New
Jun 16
First Quarter
Jun 23
Full

Hourly Weather History & Observations

Time (MDT) Temp. Dew Point Humidity Pressure Visibility Wind Dir Wind Speed Gust Speed Precip Events Conditions
12:15 AM 51.8 °F 51.8 °F 100% 29.84 in 10.0 mi SE 5.8 mph - N/A   Overcast
12:35 AM 51.8 °F 51.8 °F 100% 29.84 in 10.0 mi SE 5.8 mph - N/A   Overcast
12:55 AM 51.8 °F 51.8 °F 100% 29.83 in 10.0 mi SSE 5.8 mph - N/A   Overcast
1:15 AM 51.8 °F 51.8 °F 100% 29.84 in 10.0 mi South 4.6 mph - N/A   Overcast
1:35 AM 51.8 °F 51.8 °F 100% 29.84 in 10.0 mi SW 3.5 mph - N/A   Overcast
1:55 AM 51.8 °F 51.8 °F 100% 29.84 in 10.0 mi South 4.6 mph - N/A   Overcast
2:15 AM 51.8 °F 51.8 °F 100% 29.83 in 7.0 mi South 4.6 mph - N/A   Overcast
2:35 AM 51.8 °F 51.8 °F 100% 29.82 in 10.0 mi SE 3.5 mph - N/A   Overcast
2:55 AM 51.8 °F 51.8 °F 100% 29.82 in 10.0 mi South 4.6 mph - 0.01 in   Overcast
3:15 AM 51.8 °F 51.8 °F 100% 29.82 in 10.0 mi South 3.5 mph - N/A   Overcast
3:35 AM 51.8 °F 51.8 °F 100% 29.82 in 10.0 mi Calm Calm - N/A   Overcast
3:55 AM 51.8 °F 51.8 °F 100% 29.82 in 10.0 mi Calm Calm - N/A   Overcast
4:15 AM 51.8 °F 51.8 °F 100% 29.82 in 9.0 mi Calm Calm - N/A   Overcast
4:35 AM 50.0 °F 50.0 °F 100% 29.82 in 8.0 mi West 5.8 mph - 0.01 in   Overcast
4:55 AM 50.0 °F 50.0 °F 100% 29.81 in 10.0 mi WSW 3.5 mph - 0.01 in   Overcast
5:15 AM 50.0 °F 50.0 °F 100% 29.81 in 10.0 mi Calm Calm - N/A   Overcast
5:35 AM 50.0 °F 50.0 °F 100% 29.81 in 10.0 mi Calm Calm - N/A   Overcast
5:55 AM 50.0 °F 50.0 °F 100% 29.81 in 10.0 mi Calm Calm - N/A   Overcast
6:15 AM 50.0 °F 50.0 °F 100% 29.81 in 10.0 mi Calm Calm - N/A   Overcast
6:35 AM 51.8 °F 51.8 °F 100% 29.82 in 10.0 mi West 3.5 mph - N/A   Overcast
6:55 AM 50.0 °F 50.0 °F 100% 29.82 in 5.0 mi West 5.8 mph - N/A   Mostly Cloudy
7:15 AM 50.0 °F 50.0 °F 100% 29.82 in 10.0 mi West 8.1 mph - N/A   Mostly Cloudy
7:35 AM 50.0 °F 50.0 °F 100% 29.83 in 8.0 mi West 4.6 mph - N/A   Mostly Cloudy
7:55 AM 50.0 °F 50.0 °F 100% 29.83 in 5.0 mi West 5.8 mph - 0.01 in   Mostly Cloudy
8:15 AM 50.0 °F 50.0 °F 100% 29.83 in 10.0 mi West 6.9 mph - N/A   Mostly Cloudy
8:35 AM 51.8 °F 50.0 °F 94% 29.83 in 10.0 mi West 8.1 mph - N/A   Overcast
8:55 AM 51.8 °F 50.0 °F 94% 29.84 in 10.0 mi WNW 13.8 mph - N/A   Overcast
9:15 AM 51.8 °F 50.0 °F 94% 29.84 in 10.0 mi WNW 12.7 mph - N/A   Overcast
9:35 AM 51.8 °F 50.0 °F 94% 29.85 in 10.0 mi WNW 10.4 mph - N/A   Overcast
9:55 AM 53.6 °F 48.2 °F 82% 29.85 in 10.0 mi WNW 9.2 mph 18.4 mph N/A   Overcast
10:15 AM 53.6 °F 46.4 °F 77% 29.86 in 10.0 mi WNW 17.3 mph 21.9 mph N/A   Overcast
10:35 AM 53.6 °F 48.2 °F 82% 29.86 in 10.0 mi WNW 13.8 mph 18.4 mph N/A   Overcast
10:55 AM 53.6 °F 46.4 °F 77% 29.86 in 10.0 mi WNW 13.8 mph 18.4 mph N/A   Overcast
11:15 AM 55.4 °F 46.4 °F 72% 29.86 in 10.0 mi WNW 16.1 mph - N/A   Overcast
11:35 AM 55.4 °F 46.4 °F 72% 29.87 in 10.0 mi WNW 15.0 mph - N/A   Overcast
11:55 AM 57.2 °F 46.4 °F 67% 29.86 in 10.0 mi NW 13.8 mph 18.4 mph N/A   Overcast
12:15 PM 55.4 °F 44.6 °F 67% 29.87 in 10.0 mi NW 9.2 mph 17.3 mph N/A   Overcast
12:35 PM 55.4 °F 44.6 °F 67% 29.87 in 10.0 mi NW 10.4 mph - N/A   Mostly Cloudy
12:55 PM 57.2 °F 44.6 °F 63% 29.87 in 10.0 mi NW 12.7 mph 16.1 mph N/A   Mostly Cloudy
1:15 PM 57.2 °F 44.6 °F 63% 29.87 in 10.0 mi NNW 12.7 mph 16.1 mph N/A   Mostly Cloudy
1:35 PM 59.0 °F 44.6 °F 59% 29.86 in 10.0 mi NNW 11.5 mph - N/A   Mostly Cloudy
1:55 PM 59.0 °F 44.6 °F 59% 29.86 in 10.0 mi NNW 9.2 mph - N/A   Mostly Cloudy
2:15 PM 59.0 °F 42.8 °F 55% 29.86 in 10.0 mi NNW 11.5 mph 18.4 mph N/A   Overcast
2:35 PM 62.6 °F 44.6 °F 52% 29.86 in 10.0 mi North 11.5 mph 16.1 mph N/A   Overcast
2:55 PM 62.6 °F 41.0 °F 45% 29.86 in 10.0 mi NW 13.8 mph 20.7 mph N/A   Mostly Cloudy
3:15 PM 62.6 °F 42.8 °F 48% 29.86 in 10.0 mi NW 10.4 mph 18.4 mph N/A   Scattered Clouds
3:35 PM 62.6 °F 41.0 °F 45% 29.86 in 10.0 mi NW 10.4 mph - N/A   Scattered Clouds
3:55 PM 62.6 °F 41.0 °F 45% 29.86 in 10.0 mi NNW 10.4 mph - N/A   Mostly Cloudy
4:15 PM 62.6 °F 41.0 °F 45% 29.86 in 10.0 mi NW 12.7 mph 17.3 mph N/A   Mostly Cloudy
4:35 PM 62.6 °F 41.0 °F 45% 29.85 in 10.0 mi NNW 11.5 mph 20.7 mph N/A   Scattered Clouds
4:55 PM 62.6 °F 41.0 °F 45% 29.85 in 10.0 mi NNW 11.5 mph 17.3 mph N/A   Mostly Cloudy
5:15 PM 66.2 °F 41.0 °F 40% 29.85 in 10.0 mi West 19.6 mph 25.3 mph N/A   Mostly Cloudy
5:35 PM 64.4 °F 39.2 °F 40% 29.85 in 10.0 mi NW 12.7 mph 20.7 mph N/A   Partly Cloudy
5:55 PM 64.4 °F 39.2 °F 40% 29.85 in 10.0 mi NNW 12.7 mph 18.4 mph N/A   Clear
6:15 PM 64.4 °F 41.0 °F 42% 29.84 in 10.0 mi NW 13.8 mph 20.7 mph N/A   Scattered Clouds
6:35 PM 64.4 °F 39.2 °F 40% 29.84 in 10.0 mi NW 12.7 mph 17.3 mph N/A   Overcast
6:55 PM 64.4 °F 39.2 °F 40% 29.83 in 10.0 mi NNW 8.1 mph - N/A   Overcast
7:15 PM 64.4 °F 39.2 °F 40% 29.83 in 10.0 mi NNW 6.9 mph - N/A   Mostly Cloudy
7:35 PM 64.4 °F 37.4 °F 37% 29.83 in 10.0 mi NNW 10.4 mph - N/A   Clear
7:55 PM 64.4 °F 37.4 °F 37% 29.83 in 10.0 mi NNW 6.9 mph - N/A   Clear
8:15 PM 64.4 °F 39.2 °F 40% 29.83 in 10.0 mi NW 5.8 mph - N/A   Clear
8:35 PM 62.6 °F 39.2 °F 42% 29.83 in 10.0 mi NNW 5.8 mph - N/A   Partly Cloudy
8:55 PM 62.6 °F 39.2 °F 42% 29.83 in 10.0 mi NW 4.6 mph - N/A   Scattered Clouds
9:15 PM 62.6 °F 39.2 °F 42% 29.84 in 10.0 mi North 4.6 mph - N/A   Mostly Cloudy
9:35 PM 59.0 °F 41.0 °F 51% 29.83 in 10.0 mi NE 5.8 mph - N/A   Scattered Clouds
9:55 PM 57.2 °F 44.6 °F 63% 29.83 in 10.0 mi ENE 5.8 mph - N/A   Clear
10:15 PM 57.2 °F 46.4 °F 67% 29.83 in 10.0 mi ENE 6.9 mph - N/A   Clear
10:35 PM 55.4 °F 46.4 °F 72% 29.83 in 10.0 mi East 5.8 mph - N/A   Clear
10:55 PM 53.6 °F 46.4 °F 77% 29.83 in 10.0 mi South 4.6 mph - N/A   Clear
11:15 PM 53.6 °F 48.2 °F 82% 29.84 in 10.0 mi Calm Calm - N/A   Clear
11:35 PM 51.8 °F 48.2 °F 88% 29.83 in 10.0 mi Calm Calm - N/A   Clear
11:55 PM 50.0 °F 48.2 °F 94% 29.83 in 10.0 mi SE 3.5 mph - N/A   Clear